Pocatello, ID

8:13 PM MST on December 16, 2017 (GMT -0700)
Pocatello Regional

Weather History for KPIH - July, 2013

Change the Weather History Date:

Wednesday, July 31, 2013

  Actual Average Record
Temperature  
Mean Temperature 74 °F 71 °F  
Max Temperature 96 °F 90 °F 103 °F (2000)
Min Temperature 51 °F 53 °F 38 °F (1995)
Degree Days  
Heating Degree Days 0 0  
Month to date heating degree days 0 17  
Since 1 June heating degree days 90 151  
Since 1 July heating degree days 0 20  
Cooling Degree Days 9 6  
Month to date cooling degree days 292 172  
Year to date cooling degree days 394 223  
Since 1 June cooling degree days 385 218  
Growing Degree Days 24 (Base 50)    
Moisture  
Dew Point 41 °F    
Average Humidity 41    
Maximum Humidity 71    
Minimum Humidity 10    
Precipitation  
Precipitation T in 0.02 in 0.55 in (1976)
Month to date precipitation 0.27 0.64  
Year to date precipitation 3.82 7.46  
Snow  
Snow 0.00 in - - ()
Month to date snowfall 0.0  
Since 1 June snowfall 0.0  
Since 1 July snowfall 0.0  
Snow Depth 0.00 in    
Sea Level Pressure  
Sea Level Pressure 29.98 in    
Wind  
Wind Speed 7 mph (ESE)    
Max Wind Speed 25 mph    
Max Gust Speed 36 mph    
Visibility 10 miles    
Events Thunderstorm    
T = Trace of Precipitation, MM = Missing Value Source: NWS Daily Summary

Daily Weather History Graph

Daily Weather History Graph

Search for Another Location

Airport or City:

Trip Planner

Search our weather history database for the weather conditions in past years. The results will help you decide how hot, cold, wet, or windy it might be!

Date:

Astronomy

Jul. 31, 2013 Rise Set
Actual Time 6:20 AM MDT 8:52 PM MDT
Civil Twilight 5:48 AM MDT 9:24 PM MDT
Nautical Twilight 5:08 AM MDT 10:04 PM MDT
Astronomical Twilight 4:22 AM MDT 10:49 PM MDT
Moon 1:18 AM MDT (7/31) 4:12 PM MDT (7/31)
Length of Visible Light 15h 35m
Length of Day
14h 31m
Waning Crescent, 31% of the Moon is Illuminated
Jul 31
Waning Crescent
Aug 6
New
Aug 14
First Quarter
Aug 20
Full
Aug 28
Last Quarter

Hourly Weather History & Observations

Time (MDT) Temp. Dew Point Humidity Pressure Visibility Wind Dir Wind Speed Gust Speed Precip Events Conditions
12:53 AM 61.0 °F 41.0 °F 48% 30.03 in 10.0 mi NE 3.5 mph - N/A   Clear
1:53 AM 60.1 °F 43.0 °F 53% 30.02 in 10.0 mi Calm Calm - N/A   Clear
2:53 AM 59.0 °F 43.0 °F 55% 30.04 in 10.0 mi SE 3.5 mph - N/A   Clear
3:53 AM 60.1 °F 43.0 °F 53% 30.04 in 10.0 mi Variable 5.8 mph - N/A   Clear
4:53 AM 53.1 °F 42.1 °F 66% 30.05 in 10.0 mi North 3.5 mph - N/A   Clear
5:53 AM 52.0 °F 42.1 °F 69% 30.06 in 10.0 mi Calm Calm - N/A   Clear
6:53 AM 55.9 °F 44.1 °F 64% 30.07 in 10.0 mi Calm Calm - N/A   Scattered Clouds
7:53 AM 57.9 °F 46.0 °F 65% 30.08 in 10.0 mi ESE 6.9 mph - N/A   Partly Cloudy
8:53 AM 64.9 °F 46.0 °F 50% 30.08 in 10.0 mi Variable 6.9 mph - N/A   Scattered Clouds
9:53 AM 71.1 °F 48.0 °F 44% 30.07 in 10.0 mi North 9.2 mph - N/A   Scattered Clouds
10:53 AM 75.0 °F 46.9 °F 37% 30.07 in 10.0 mi NE 3.5 mph - 0.00 in   Scattered Clouds
11:53 AM 84.0 °F 46.9 °F 27% 30.03 in 10.0 mi East 8.1 mph - N/A   Clear
12:53 PM 91.9 °F 41.0 °F 17% 30.00 in 10.0 mi SSW 11.5 mph 16.1 mph N/A   Partly Cloudy
1:53 PM 91.9 °F 41.0 °F 17% 29.98 in 10.0 mi Variable 6.9 mph - N/A   Partly Cloudy
2:53 PM 91.0 °F 43.0 °F 19% 29.95 in 10.0 mi NW 9.2 mph - N/A   Scattered Clouds
3:53 PM 90.0 °F 42.1 °F 19% 29.94 in 10.0 mi NW 9.2 mph - N/A   Mostly Cloudy
4:53 PM 93.0 °F 36.0 °F 13% 29.91 in 10.0 mi South 12.7 mph 20.7 mph N/A   Scattered Clouds
5:53 PM 96.1 °F 30.9 °F 10% 29.88 in 10.0 mi SSW 11.5 mph - N/A   Clear
6:53 PM 91.0 °F 33.1 °F 13% 29.86 in 10.0 mi SW 6.9 mph - N/A   Partly Cloudy
7:53 PM 87.1 °F 30.0 °F 13% 29.85 in 10.0 mi South 9.2 mph - N/A   Partly Cloudy
8:37 PM 80.6 °F 33.8 °F 18% 29.99 in 10.0 mi South 8.1 mph - N/A Thunderstorm Thunderstorm
8:53 PM 80.1 °F 33.1 °F 18% 29.88 in 10.0 mi WSW 10.4 mph 18.4 mph N/A Thunderstorm Thunderstorm
9:53 PM 75.0 °F 43.0 °F 32% 29.88 in 10.0 mi Variable 4.6 mph - N/A   Clear
10:53 PM 75.0 °F 45.0 °F 34% 29.88 in 10.0 mi East 9.2 mph - N/A   Partly Cloudy
11:53 PM 73.9 °F 44.1 °F 34% 29.86 in 10.0 mi ENE 9.2 mph - N/A   Clear